Content
SEND FEEDBACK

Daily
Averages
Monthly
Summary
United States of America

WARROAD, MINNESOTA


Home > North America > United States > Minnesota
Elevation: 1066 feet     Latitude: 48 55N     Longitude: 095 19W

WEATHER
 
SELECT A DAY
Number of Records: 438,692;   Date Range: 2/3/97 - 10/20/14
 
SHARE

PRINT THIS DATA

[ ← Previous Day ]
WEATHER ALMANAC - JANUARY 31, 2013
[ Next Day → ]
[ °C ]   °F
Weather ElementAverageHighLow
Temperature-9.9 °F-4 °F (12:34 am)-23.8 °F (11:14 pm)
Dewpoint-17.6 °F-9.4 °F (12:34 am)-29.2 °F (10:34 pm)
Humidity69.2 %78 % (12:34 am)55 % (3:54 pm)
Barometer30.04 in30.19 in (8:34 pm)29.82 in (12:34 am)
Wind Speed11.8 mph18.4 mph (7:34 am)
Wind Gust25.3 mph (9:34 am)
Weather ElementAverage
Visibility7.9 mi
Wind DirectionWNW (291.2 °)

Weather ElementTotal
Precipitation---
Heating Degree Days78.9 (Base 65)
Averaged from 65 records on January 31, 2013
WEATHER CONDITIONS BREAKOUT
WIND DIRECTION BREAKOUT
WEATHER BY HOUR - JANUARY 31, 2013
[ °C ]   °F
Local TimeTemperatureDewpointHumidityBarometerVisibilityWind DirectionWind SpeedGust SpeedPrecipitationEventsConditions
12:34 AM-4.0 °F-9.4 °F78 %29.82 in5.0 miNW (310°)13.8 mph19.6 mphHaze
12:54 AM-4.0 °F-9.4 °F78 %29.83 in4.0 miNW (310°)12.7 mphSnowLight Snow
1:14 AM-4.0 °F-9.4 °F78 %29.83 in4.0 miNW (310°)13.8 mphSnowLight Snow
1:34 AM-5.8 °F-11.2 °F77 %29.84 in4.0 miNW (310°)13.8 mphSnowLight Snow
1:54 AM-5.8 °F-11.2 °F77 %29.84 in3.0 miNW (310°)13.8 mph18.4 mphSnowLight Snow
2:14 AM-5.8 °F-11.2 °F77 %29.85 in4.0 miNW (310°)11.5 mphSnowLight Snow
2:34 AM-5.8 °F-11.2 °F77 %29.86 in4.0 miNW (310°)12.7 mph19.6 mphHaze
2:54 AM-5.8 °F-11.2 °F77 %29.86 in4.0 miWNW (300°)13.8 mph19.6 mphSnowLight Snow
3:14 AM-5.8 °F-11.2 °F77 %29.87 in4.0 miWNW (300°)11.5 mphHaze
3:34 AM-5.8 °F-11.2 °F77 %29.87 in10.0 miNW (310°)13.8 mph20.7 mphMostly Cloudy
3:54 AM-5.8 °F-11.2 °F77 %29.88 in5.0 miWNW (300°)12.7 mph17.3 mphSnowLight Snow
4:14 AM-5.8 °F-11.2 °F77 %29.89 in4.0 miNW (310°)13.8 mph20.7 mphSnowLight Snow
4:34 AM-5.8 °F-11.2 °F77 %29.90 in5.0 miNW (310°)15.0 mphSnowLight Snow
4:54 AM-5.8 °F-11.2 °F77 %29.91 in5.0 miNW (310°)15.0 mph20.7 mphSnowLight Snow
5:14 AM-5.8 °F-11.2 °F77 %29.91 in5.0 miNW (310°)16.1 mph20.7 mphSnowLight Snow
5:34 AM-5.8 °F-11.2 °F77 %29.92 in7.0 miNW (310°)13.8 mphMostly Cloudy
5:54 AM-5.8 °F-13.0 °F71 %29.93 in5.0 miNW (310°)12.7 mph21.9 mphSnowLight Snow
6:14 AM-5.8 °F-13.0 °F71 %29.94 in7.0 miNW (310°)13.8 mph18.4 mphSnowLight Snow
6:34 AM-5.8 °F-13.0 °F71 %29.95 in7.0 miWNW (300°)12.7 mph16.1 mphSnowLight Snow
6:54 AM-7.6 °F-13.0 °F77 %29.96 in5.0 miWNW (300°)13.8 mph19.6 mphSnowLight Snow
7:14 AM-7.6 °F-14.8 °F71 %29.97 in7.0 miWNW (300°)13.8 mphSnowLight Snow
7:34 AM-7.6 °F-14.8 °F71 %29.98 in7.0 miNW (310°)18.4 mph21.9 mphSnowLight Snow
7:54 AM-7.6 °F-14.8 °F71 %29.99 in7.0 miNW (310°)17.3 mph21.9 mphSnowLight Snow
8:14 AM-9.4 °F-16.6 °F71 %30.00 in5.0 miNW (310°)15.0 mph23.0 mphSnowLight Snow
8:34 AM-9.4 °F-16.6 °F71 %30.01 in7.0 miNW (310°)16.1 mph23.0 mphSnowLight Snow
8:54 AM-9.4 °F-16.6 °F71 %30.01 in10.0 miWNW (300°)15.0 mph21.9 mphSnowLight Snow
9:34 AM-9.4 °F-16.6 °F71 %30.03 in5.0 miNW (310°)17.3 mph25.3 mphHaze
9:54 AM-9.4 °F-16.6 °F71 %30.04 in7.0 miWNW (300°)16.1 mph24.2 mphClear
10:14 AM-7.6 °F-16.6 °F65 %30.05 in7.0 miWNW (300°)15.0 mph21.9 mphClear
10:34 AM-9.4 °F-16.6 °F71 %30.06 in7.0 miNW (310°)17.3 mph23.0 mphClear
11:14 AM-7.6 °F-16.6 °F65 %30.08 in7.0 miNW (310°)16.1 mph20.7 mphClear
11:34 AM-7.6 °F-16.6 °F65 %30.08 in7.0 miNW (310°)15.0 mph24.2 mphClear
11:54 AM-7.6 °F-16.6 °F65 %30.08 in10.0 miWNW (300°)15.0 mph20.7 mphClear
12:14 PM-7.6 °F-16.6 °F65 %30.08 in10.0 miWNW (300°)15.0 mph20.7 mphClear
12:34 PM-5.8 °F-16.6 °F60 %30.08 in10.0 miNW (310°)16.1 mph19.6 mphClear
12:54 PM-5.8 °F-16.6 °F60 %30.08 in10.0 miWNW (300°)12.7 mphClear
1:14 PM-5.8 °F-16.6 °F60 %30.09 in10.0 miNW (310°)9.2 mphClear
1:34 PM-5.8 °F-16.6 °F60 %30.09 in10.0 miNW (310°)10.4 mphClear
1:54 PM-5.8 °F-16.6 °F60 %30.09 in10.0 miWNW (300°)9.2 mphClear
2:14 PM-5.8 °F-16.6 °F60 %30.09 in10.0 miNW (310°)9.2 mphClear
2:34 PM-5.8 °F-16.6 °F60 %30.10 in10.0 miWNW (290°)10.4 mphClear
2:54 PM-5.8 °F-16.6 °F60 %30.10 in10.0 miWNW (290°)10.4 mphClear
3:14 PM-5.8 °F-16.6 °F60 %30.11 in10.0 miWNW (290°)10.4 mph18.4 mphClear
3:34 PM-5.8 °F-16.6 °F60 %30.12 in10.0 miWest (280°)11.5 mphClear
3:54 PM-5.8 °F-18.4 °F55 %30.13 in10.0 miWest (280°)11.5 mph17.3 mphClear
4:14 PM-9.4 °F-20.2 °F59 %30.13 in10.0 miWSW (250°)11.5 mphClear
4:34 PM-11.2 °F-20.2 °F64 %30.14 in10.0 miWSW (250°)10.4 mphClear
4:54 PM-11.2 °F-20.2 °F64 %30.14 in10.0 miWest (260°)8.1 mphClear
5:14 PM-13.0 °F-22.0 °F64 %30.15 in10.0 miWSW (250°)9.2 mphClear
5:34 PM-14.8 °F-22.0 °F70 %30.16 in10.0 miWSW (250°)5.8 mphClear
6:14 PM-14.8 °F-23.8 °F64 %30.16 in10.0 miWest (270°)9.2 mphClear
6:34 PM-14.8 °F-23.8 °F64 %30.16 in10.0 miWest (280°)11.5 mph16.1 mphClear
6:54 PM-14.8 °F-23.8 °F64 %30.17 in10.0 miWest (280°)11.5 mphClear
7:14 PM-16.6 °F-25.6 °F64 %30.17 in10.0 miWest (280°)10.4 mphClear
7:34 PM-16.6 °F-25.6 °F64 %30.18 in10.0 miWNW (290°)8.1 mphClear
8:14 PM-18.4 °F-25.6 °F70 %30.18 in10.0 miWest (270°)4.6 mphClear
8:34 PM-18.4 °F-27.4 °F63 %30.19 in10.0 miWest (260°)4.6 mphClear
8:54 PM-20.2 °F-27.4 °F69 %30.18 in10.0 miWest (270°)6.9 mphClear
9:14 PM-20.2 °F-27.4 °F69 %30.18 in10.0 miWest (260°)5.8 mphClear
9:34 PM-20.2 °F-27.4 °F69 %30.19 in10.0 miWSW (250°)6.9 mphClear
10:14 PM-22.0 °F-27.4 °F76 %30.18 in10.0 miWSW (250°)5.8 mphClear
10:34 PM-22.0 °F-29.2 °F69 %30.18 in10.0 miWSW (250°)5.8 mphClear
11:14 PM-23.8 °F-29.2 °F76 %30.17 in10.0 miWest (260°)6.9 mphClear
11:34 PM-23.8 °F-29.2 °F76 %30.17 in10.0 miWSW (250°)5.8 mphClear
11:54 PM-23.8 °F-29.2 °F76 %30.16 in10.0 miWSW (250°)5.8 mphClear
Hourly data recorded from KRRT, located miles away from Warroad, Minnesota







STORIES FROM OUR PARTNERS